Tim S. Dool — VGPY — position and weather

sailwx.info

Track history (hours):
 
Tides and Currents Weather Stations Pressure Air Temp Water Temp Dewpoint Dewpoint Depression Visibility Wind Speed Wind Dir Waves Ship Positions

Tim S. Dool

Last reported at 2014-Oct-24 07:15 UTC. Time now 2014-Oct-24 20:33 UTC.
Position N 45°25' W 083°12'.

Length 223 m; draft 8 m.

Type: Cargo ship. MMSI: 316001696.

Date/timePositionNaut miles runAvg speedWind from/ knotsBaromVisibWave heightAir tempDewpointWater temp
2014-Oct-24 07:15N 45°25' W 083°12'7 5.8
2014-Oct-24 06:00N 45°18' W 083°12'2954.1 200 / 21014.010.8 8.0
2014-Oct-24 05:27N 45°42' W 083°35'1112.7
2014-Oct-24 04:33N 45°51' W 083°46'1411.2
2014-Oct-24 03:19N 46°03' W 083°56'15 8.5
2014-Oct-24 01:33N 46°14' W 084°11'6 6.1
2014-Oct-24 00:33N 46°20' W 084°13'4 7.4
2014-Oct-24 00:00N 46°24' W 084°12'7 8.8 150 / 61015.0 9.0
2014-Oct-23 23:13N 46°29' W 084°18'2 2.4
2014-Oct-23 22:14N 46°30' W 084°21'2 0.9
2014-Oct-23 20:24N 46°30' W 084°24'5 5.4
2014-Oct-23 19:24N 46°27' W 084°30'9 9.6
2014-Oct-23 18:31N 46°33' W 084°40'1212.6
2014-Oct-23 17:33N 46°42' W 084°50'1212.1
2014-Oct-23 16:33N 46°51' W 085°03'1512.6
2014-Oct-23 15:21N 46°58' W 085°23'1012.5
2014-Oct-23 14:33N 47°03' W 085°36'5 9.7
2014-Oct-23 14:00N 47°06' W 085°42'716.3 150 / 121015.010.8 1.0 8.0
2014-Oct-23 13:33N 47°08' W 085°52'1312.5
2014-Oct-23 12:33N 47°15' W 086°08'7210.9
2014-Oct-23 06:00N 48°00' W 087°30'   150 / 151016.010.8 1.5 8.0
2014-Oct-21 00:00N 48°18' W 089°06'68 6.8 360 / 101015.010.8 1.0 8.0
2014-Oct-20 14:00N 47°54' W 087°30'11113.9 330 / 121007.010.8 1.0 8.0
2014-Oct-20 06:00N 47°00' W 085°06'29 7.3 210 / 101003.0 5.4 8.0
2014-Oct-20 02:00N 46°36' W 084°42'9011.3 150 / 161007.0 1.0 8.0
2014-Oct-19 18:00N 45°24' W 083°24'167 9.3 190 / 51016.010.8 0.5 9.0
2014-Oct-19 00:00N 42°42' W 082°30'43 3.6 330 / 91012.010.8 7.0
2014-Oct-18 12:00N 42°12' W 081°48'6711.1 300 / 201004.010.8 1.5 7.0
2014-Oct-18 06:00N 42°18' W 080°18'1738.0 280 / 25998.010.8 2.015.0
2014-Oct-18 05:33N 42°31' W 080°32'15 7.5
2014-Oct-18 03:33N 42°29' W 080°12'11 7.8
2014-Oct-18 02:10N 42°32' W 079°58'710.9
2014-Oct-18 01:33N 42°36' W 079°50'1110.9
2014-Oct-18 00:33N 42°41' W 079°37'143 3.1
2014-Oct-16 02:28N 43°53' W 076°48'1112.3
2014-Oct-16 01:34N 43°59' W 076°35'1211.9
2014-Oct-16 00:34N 44°07' W 076°23'1110.6
2014-Oct-15 23:34N 44°13' W 076°11'13 8.2
2014-Oct-15 22:00N 44°18' W 075°54'56 8.0 999 / 11008.0 5.4 21.0
2014-Oct-15 15:00N 44°54' W 074°54'19 4.3 160 / 61008.0 -4.9
2014-Oct-15 10:33N 45°04' W 074°31'9 9.1
2014-Oct-15 09:34N 45°10' W 074°21'10 9.6
2014-Oct-15 08:33N 45°14' W 074°09'8 7.6
2014-Oct-15 07:34N 45°15' W 073°58'4 3.7
2014-Oct-15 06:34N 45°18' W 073°56'1 0.9
2014-Oct-15 05:33N 45°19' W 073°55'4 4.4
2014-Oct-15 04:34N 45°22' W 073°50'7 7.5
2014-Oct-15 03:34N 45°25' W 073°40'4 3.7
2014-Oct-15 02:34N 45°24' W 073°35'1 1.3
2014-Oct-15 01:34N 45°24' W 073°33'3 2.6
2014-Oct-15 00:34N 45°26' W 073°30'4 3.9
2014-Oct-14 23:34N 45°30' W 073°31'1 1.3
2014-Oct-14 22:33N 45°31' W 073°31'7 7.3
2014-Oct-14 21:34N 45°38' W 073°29'9 8.8
2014-Oct-14 20:34N 45°46' W 073°23'9 9.3
2014-Oct-14 19:34N 45°53' W 073°15'10 9.3
2014-Oct-14 18:30N 46°02' W 073°10'10 9.4
2014-Oct-14 17:28N 46°07' W 072°58'9 9.5
2014-Oct-14 16:33N 46°13' W 072°48'10 9.9
2014-Oct-14 15:33N 46°17' W 072°36'9 8.8
2014-Oct-14 14:33N 46°23' W 072°26'8 8.3
2014-Oct-14 13:33N 46°27' W 072°15'8 8.3
2014-Oct-14 12:33N 46°34' W 072°08'  
Track history (hours):
 
Tides and Currents Weather Stations Pressure Air Temp Water Temp Dewpoint Dewpoint Depression Visibility Wind Speed Wind Dir Waves Ship Positions

Tim S. Dool

Last reported at 2014-Oct-24 07:15 UTC. Time now 2014-Oct-24 20:33 UTC.
Position N 45°25' W 083°12'.

Length 223 m; draft 8 m.

Type: Cargo ship. MMSI: 316001696.

Date/timePositionNaut miles runAvg speedWind from/ knotsBaromVisibWave heightAir tempDewpointWater temp
2014-Oct-24 07:15N 45°25' W 083°12'7 5.8
2014-Oct-24 06:00N 45°18' W 083°12'2954.1 200 / 21014.010.8 8.0
2014-Oct-24 05:27N 45°42' W 083°35'1112.7
2014-Oct-24 04:33N 45°51' W 083°46'1411.2
2014-Oct-24 03:19N 46°03' W 083°56'15 8.5
2014-Oct-24 01:33N 46°14' W 084°11'6 6.1
2014-Oct-24 00:33N 46°20' W 084°13'4 7.4
2014-Oct-24 00:00N 46°24' W 084°12'7 8.8 150 / 61015.0 9.0
2014-Oct-23 23:13N 46°29' W 084°18'2 2.4
2014-Oct-23 22:14N 46°30' W 084°21'2 0.9
2014-Oct-23 20:24N 46°30' W 084°24'5 5.4
2014-Oct-23 19:24N 46°27' W 084°30'9 9.6
2014-Oct-23 18:31N 46°33' W 084°40'1212.6
2014-Oct-23 17:33N 46°42' W 084°50'1212.1
2014-Oct-23 16:33N 46°51' W 085°03'1512.6
2014-Oct-23 15:21N 46°58' W 085°23'1012.5
2014-Oct-23 14:33N 47°03' W 085°36'5 9.7
2014-Oct-23 14:00N 47°06' W 085°42'716.3 150 / 121015.010.8 1.0 8.0
2014-Oct-23 13:33N 47°08' W 085°52'1312.5
2014-Oct-23 12:33N 47°15' W 086°08'7210.9
2014-Oct-23 06:00N 48°00' W 087°30'   150 / 151016.010.8 1.5 8.0
2014-Oct-21 00:00N 48°18' W 089°06'68 6.8 360 / 101015.010.8 1.0 8.0
2014-Oct-20 14:00N 47°54' W 087°30'11113.9 330 / 121007.010.8 1.0 8.0
2014-Oct-20 06:00N 47°00' W 085°06'29 7.3 210 / 101003.0 5.4 8.0
2014-Oct-20 02:00N 46°36' W 084°42'9011.3 150 / 161007.0 1.0 8.0
2014-Oct-19 18:00N 45°24' W 083°24'167 9.3 190 / 51016.010.8 0.5 9.0
2014-Oct-19 00:00N 42°42' W 082°30'43 3.6 330 / 91012.010.8 7.0
2014-Oct-18 12:00N 42°12' W 081°48'6711.1 300 / 201004.010.8 1.5 7.0
2014-Oct-18 06:00N 42°18' W 080°18'1738.0 280 / 25998.010.8 2.015.0
2014-Oct-18 05:33N 42°31' W 080°32'15 7.5
2014-Oct-18 03:33N 42°29' W 080°12'11 7.8
2014-Oct-18 02:10N 42°32' W 079°58'710.9
2014-Oct-18 01:33N 42°36' W 079°50'1110.9
2014-Oct-18 00:33N 42°41' W 079°37'143 3.1
2014-Oct-16 02:28N 43°53' W 076°48'1112.3
2014-Oct-16 01:34N 43°59' W 076°35'1211.9
2014-Oct-16 00:34N 44°07' W 076°23'1110.6
2014-Oct-15 23:34N 44°13' W 076°11'13 8.2
2014-Oct-15 22:00N 44°18' W 075°54'56 8.0 999 / 11008.0 5.4 21.0
2014-Oct-15 15:00N 44°54' W 074°54'19 4.3 160 / 61008.0 -4.9
2014-Oct-15 10:33N 45°04' W 074°31'9 9.1
2014-Oct-15 09:34N 45°10' W 074°21'10 9.6
2014-Oct-15 08:33N 45°14' W 074°09'8 7.6
2014-Oct-15 07:34N 45°15' W 073°58'4 3.7
2014-Oct-15 06:34N 45°18' W 073°56'1 0.9
2014-Oct-15 05:33N 45°19' W 073°55'4 4.4
2014-Oct-15 04:34N 45°22' W 073°50'7 7.5
2014-Oct-15 03:34N 45°25' W 073°40'4 3.7
2014-Oct-15 02:34N 45°24' W 073°35'1 1.3
2014-Oct-15 01:34N 45°24' W 073°33'3 2.6
2014-Oct-15 00:34N 45°26' W 073°30'4 3.9
2014-Oct-14 23:34N 45°30' W 073°31'1 1.3
2014-Oct-14 22:33N 45°31' W 073°31'7 7.3
2014-Oct-14 21:34N 45°38' W 073°29'9 8.8
2014-Oct-14 20:34N 45°46' W 073°23'9 9.3
2014-Oct-14 19:34N 45°53' W 073°15'10 9.3
2014-Oct-14 18:30N 46°02' W 073°10'10 9.4
2014-Oct-14 17:28N 46°07' W 072°58'9 9.5
2014-Oct-14 16:33N 46°13' W 072°48'10 9.9
2014-Oct-14 15:33N 46°17' W 072°36'9 8.8
2014-Oct-14 14:33N 46°23' W 072°26'8 8.3
2014-Oct-14 13:33N 46°27' W 072°15'8 8.3
2014-Oct-14 12:33N 46°34' W 072°08'  

Dump ship's entire track history